Date,TemperatureHighF,TemperatureAvgF,TemperatureLowF,DewpointHighF,DewpointAvgF,DewpointLowF,HumidityHigh,HumidityAvg,HumidityLow,PressureMaxIn,PressureMinIn,WindSpeedMaxMPH,WindSpeedAvgMPH,GustSpeedMaxMPH,PrecipitationSumIn
2013-1-1,51.6,43.0,32.7,26.3,15.8,0.8,50,34,24,30.15,30.00,10,3,23,0.08
2013-1-2,40.8,36.1,33.1,30.8,18.5,7.8,77,51,29,30.18,30.00,10,3,16,0.04
2013-1-3,39.6,32.2,27.3,26.1,9.5,-4.8,67,40,21,30.24,30.15,8,1,9,0.00
2013-1-4,40.8,28.9,23.2,3.9,-1.9,-6.2,33,26,21,30.33,30.24,14,2,15,0.00
2013-1-5,46.6,32.9,22.8,7.4,0.7,-6.2,33,25,19,30.39,30.24,4,0,6,0.00
2013-1-6,48.2,35.8,29.5,21.3,8.4,2.9,56,33,19,30.24,30.12,17,4,17,0.00
2013-1-7,44.4,32.6,23.7,6.1,2.2,-5.7,36,27,20,30.42,30.21,12,2,16,0.00
2013-1-8,49.1,33.9,21.2,22.4,6.5,-0.1,53,33,19,30.45,30.39,5,0,6,0.00
2013-1-9,56.7,47.3,34.5,48.1,31.6,23.0,82,56,36,30.50,30.42,5,0,8,0.00
2013-1-10,57.7,49.4,42.8,51.2,26.5,6.8,87,46,19,30.56,30.45,6,1,10,0.00
2013-1-11,52.7,45.4,40.5,50.2,38.5,6.8,91,80,19,30.45,30.24,9,3,13,0.20
2013-1-12,68.7,55.8,43.9,62.2,45.4,33.4,96,72,32,30.27,30.21,3,0,8,0.00
2013-1-13,63.1,59.0,56.1,51.1,41.9,31.6,80,56,31,30.24,30.18,8,0,10,0.00
2013-1-14,58.8,56.1,46.9,54.7,50.0,39.2,91,81,48,30.27,30.18,6,0,8,1.89
2013-1-15,46.6,42.7,37.8,44.0,40.5,35.9,95,92,89,30.27,30.12,6,0,6,1.65
2013-1-16,57.2,48.7,38.1,56.1,46.9,36.3,98,94,87,30.12,30.03,0,0,6,0.31
2013-1-17,48.9,39.3,29.5,45.9,36.7,28.7,98,90,81,30.18,29.97,7,0,16,0.91
2013-1-18,34.5,28.6,19.9,31.6,21.7,13.6,97,76,58,30.47,30.21,0,0,6,0.24
2013-1-19,46.0,29.2,17.8,37.6,18.6,11.8,85,66,41,30.44,30.18,0,0,0,0.51
2013-1-20,46.4,35.2,23.0,20.9,10.1,2.1,69,39,19,30.18,30.12,14,4,15,0.00
2013-1-21,45.3,32.0,23.5,20.2,3.6,-6.7,57,32,20,30.12,29.97,15,5,25,0.00
2013-1-22,25.5,18.9,12.2,-6.2,-12.6,-17.7,25,23,22,30.18,30.00,13,5,19,0.00
2013-1-23,35.1,22.8,10.8,3.3,-8.6,-18.9,33,24,22,30.27,30.03,12,3,15,0.00
2013-1-24,36.3,24.6,12.6,3.0,-7.5,-17.4,25,23,22,30.38,29.94,30,7,34,0.00
2013-1-25,34.7,19.6,11.3,25.1,-2.5,-18.5,69,39,24,30.38,30.03,10,2,15,0.00
2013-1-26,35.8,30.1,26.6,21.6,7.5,-0.2,61,39,22,30.21,30.06,11,6,17,0.00
2013-1-27,33.1,30.2,26.8,8.4,2.1,-2.0,44,30,23,30.47,30.41,5,1,9,0.04
2013-1-28,55.2,37.8,29.8,29.0,12.5,6.2,54,37,18,30.41,30.29,6,1,8,0.00
2013-1-29,65.3,46.5,31.6,47.7,25.0,14.1,81,48,15,30.29,30.18,8,0,8,0.00
2013-1-30,59.4,56.2,43.0,57.3,52.6,37.9,93,88,73,30.18,29.62,11,3,25,3.31
2013-1-31,41.7,30.6,26.1,36.3,4.2,-5.1,81,35,23,29.97,29.59,17,8,25,0.00
2013-2-1,35.8,21.1,13.1,9.2,-8.2,-16.9,47,27,22,30.27,29.88,23,8,23,0.00
2013-2-2,30.0,21.2,9.3,7.6,-8.0,-17.9,42,27,23,30.27,30.03,6,1,8,0.00
2013-2-3,37.6,30.1,24.8,11.8,2.8,-5.9,47,31,21,30.00,29.88,20,8,30,0.00
2013-2-4,41.7,29.1,16.5,4.7,-2.2,-9.5,35,26,21,30.12,30.00,12,1,15,0.00
2013-2-5,44.4,34.5,26.8,11.5,6.2,1.7,44,31,20,30.06,29.94,12,2,12,0.00
2013-2-6,52.0,37.9,26.1,19.5,6.0,-5.8,54,27,18,30.29,30.03,10,3,13,0.00
2013-2-7,39.2,34.4,27.0,27.3,10.8,-1.8,71,39,22,30.29,30.09,6,1,8,0.43
2013-2-8,45.7,37.1,29.1,41.7,21.7,0.9,89,59,21,30.09,29.94,13,4,25,0.12
2013-2-9,49.5,33.9,24.3,8.9,-0.5,-7.0,30,23,19,30.35,30.09,12,4,22,0.00
2013-2-10,45.5,35.5,23.5,17.9,3.0,-5.5,46,26,20,30.41,30.21,10,2,10,0.08
2013-2-11,58.6,48.6,36.1,52.1,34.5,9.4,87,64,18,30.18,30.03,10,2,13,0.08
2013-2-12,55.4,44.5,35.2,11.3,6.0,0.2,29,20,17,30.12,30.00,13,3,21,0.00
2013-2-13,40.8,35.5,32.5,35.8,20.5,7.2,82,56,30,30.00,29.73,19,3,22,0.31
2013-2-14,48.7,35.5,26.6,18.2,6.7,-1.1,55,32,19,30.09,29.88,17,3,22,0.00
2013-2-15,53.1,36.2,24.1,29.8,8.8,1.2,66,34,18,30.12,30.00,15,2,15,0.00
2013-2-16,32.2,27.0,19.6,7.0,-3.8,-10.5,34,25,23,30.03,29.85,13,5,17,0.00
2013-2-17,30.0,21.2,13.1,-3.3,-8.6,-13.6,35,26,23,30.18,29.94,20,8,28,0.00
2013-2-18,44.4,27.8,11.8,5.9,-5.4,-18.0,32,23,20,30.32,30.18,8,2,9,0.00
2013-2-19,46.8,36.5,29.5,34.2,7.2,-3.7,74,32,19,30.18,29.91,19,6,24,0.04
2013-2-20,43.5,31.7,24.3,5.3,-2.3,-7.3,24,23,20,30.15,30.00,18,9,23,0.00
2013-2-21,54.5,37.2,23.0,11.9,1.1,-8.2,25,21,18,30.27,30.12,10,4,15,0.00
2013-2-22,34.3,31.3,29.1,29.5,22.2,-1.0,87,72,22,30.27,30.12,8,1,10,0.12
2013-2-23,52.2,38.9,31.3,49.5,34.5,27.9,94,84,74,30.15,29.94,2,0,5,0.24
2013-2-24,52.0,39.9,28.0,34.4,14.6,-5.0,85,43,18,30.12,29.91,12,4,14,0.00
2013-2-25,36.7,29.7,24.6,4.6,-1.1,-5.9,36,26,22,30.18,30.09,8,1,9,0.00
2013-2-26,39.7,34.1,26.2,37.9,25.5,-5.0,94,75,23,30.15,29.65,14,4,17,1.34
2013-2-27,50.0,39.1,33.8,35.3,14.0,2.8,94,42,19,29.85,29.70,15,6,17,0.00
2013-2-28,34.5,31.2,28.0,7.6,3.9,-1.6,41,31,22,29.91,29.76,13,3,15,0.00
2013-3-1,37.4,31.2,28.2,7.9,3.5,-0.9,41,31,21,29.94,29.88,9,2,13,0.00
2013-3-2,36.3,28.7,21.6,4.7,0.0,-8.8,33,29,22,29.94,29.88,15,3,17,0.00
2013-3-3,31.1,23.5,18.3,-2.4,-7.6,-11.6,30,24,23,30.00,29.88,0,0,0,0.00
2013-3-4,46.0,30.0,19.4,7.2,-3.5,-10.7,25,23,20,30.12,29.97,8,2,15,0.00
2013-3-5,42.8,35.0,27.9,30.4,11.1,-5.1,79,41,21,30.09,29.70,13,1,17,0.63
2013-3-6,34.0,27.3,23.0,26.2,6.9,-0.6,74,43,25,30.09,29.70,22,1,27,0.00
2013-3-7,37.8,29.7,25.3,9.0,3.3,-1.7,49,33,21,30.27,30.09,25,4,232,0.00
2013-3-8,44.4,32.5,23.0,5.9,0.8,-2.5,35,26,20,30.35,30.21,13,3,13,0.00
2013-3-9,56.8,38.3,20.3,12.5,4.9,-2.8,43,26,17,30.35,30.29,6,0,8,0.00
2013-3-10,57.9,46.2,30.4,13.4,9.0,1.2,31,22,17,30.35,30.27,10,2,10,0.00
2013-3-11,49.8,45.7,40.5,39.7,19.8,6.4,69,37,19,30.27,30.00,8,3,13,0.35
2013-3-12,50.2,44.8,35.4,44.9,23.8,3.5,85,50,19,30.09,29.88,13,3,20,0.91
2013-3-13,37.8,32.6,24.3,13.9,1.0,-7.3,41,26,21,30.15,30.06,24,7,24,0.00
2013-3-14,42.1,29.7,19.9,5.0,-3.4,-10.2,25,23,21,30.24,30.12,19,7,24,0.00
2013-3-15,61.0,42.0,28.8,15.4,4.2,-4.3,27,21,16,30.21,30.03,19,4,19,0.00
2013-3-16,71.8,56.4,34.0,33.7,19.5,6.0,47,25,15,30.03,29.91,14,6,17,0.00
2013-3-17,57.6,46.1,34.9,46.3,31.3,24.4,79,58,35,30.18,30.03,10,1,10,0.00
2013-3-18,34.3,32.6,30.9,32.0,29.7,27.8,93,89,80,30.15,29.94,3,0,8,0.43
2013-3-19,53.1,40.6,30.0,42.3,17.3,-3.3,98,50,18,30.15,29.91,17,6,25,0.00
2013-3-20,49.5,35.7,24.1,8.9,0.5,-7.5,33,22,19,30.15,29.88,17,5,17,0.00
2013-3-21,30.7,24.3,17.8,10.1,-5.7,-13.6,47,26,22,29.97,29.82,8,0,14,0.00
2013-3-22,47.5,29.1,14.2,7.3,-4.1,-14.4,29,23,19,30.06,29.94,8,2,11,0.00
2013-3-23,48.6,37.3,30.0,11.0,3.0,-3.3,36,23,19,30.09,29.97,4,0,10,0.00
2013-3-24,38.1,34.1,30.4,31.5,23.3,8.5,88,67,38,30.00,29.65,9,1,13,1.02
2013-3-25,33.4,29.7,26.2,27.2,15.1,-1.2,89,59,25,29.85,29.62,15,3,22,0.08
2013-3-26,36.0,29.9,25.7,4.9,1.5,-2.6,38,29,22,30.15,29.85,13,5,20,0.00
2013-3-27,36.3,29.5,25.7,4.9,-1.6,-5.9,39,26,22,30.27,30.15,11,2,14,0.00
2013-3-28,43.7,32.9,24.8,5.4,-1.3,-6.2,27,23,20,30.32,30.21,13,3,15,0.00
2013-3-29,51.8,37.7,22.8,10.6,2.5,-5.9,33,23,18,30.35,30.27,11,2,15,0.00
2013-3-30,57.7,48.8,28.8,17.4,9.7,4.4,44,21,17,30.29,30.18,6,1,11,0.00
2013-3-31,56.8,47.7,42.8,48.5,28.4,8.1,81,50,22,30.18,29.97,8,0,10,0.28
2013-4-1,56.7,46.4,36.1,43.7,20.9,2.3,87,45,17,30.06,29.97,17,4,21,0.00
2013-4-2,50.4,39.3,26.8,9.7,4.1,-2.5,32,23,19,30.21,30.06,15,4,15,0.00
2013-4-3,55.4,39.8,26.2,12.3,2.9,-5.9,24,21,17,30.35,30.21,8,2,11,0.00
2013-4-4,36.1,32.4,27.7,23.5,7.1,-5.3,68,37,22,30.32,30.06,6,1,10,0.35
2013-4-5,54.3,41.1,32.9,37.2,19.6,4.5,86,50,18,30.18,30.00,14,2,14,0.47
2013-4-6,59.4,45.3,28.2,24.2,11.7,6.3,52,28,17,30.32,30.15,6,1,12,0.00
2013-4-7,64.2,51.1,39.4,17.1,11.7,3.8,29,21,16,30.29,30.21,6,1,11,0.00
2013-4-8,71.2,55.5,37.9,40.2,20.0,11.7,63,28,15,30.27,30.21,6,1,10,0.00
2013-4-9,76.3,58.6,40.1,47.3,23.6,15.9,69,30,15,30.35,30.24,6,1,10,0.00
2013-4-10,80.1,65.0,46.8,54.2,26.7,19.6,75,27,15,30.27,30.15,7,1,10,0.00
2013-4-11,73.2,63.9,50.7,52.8,26.6,20.9,74,26,16,30.15,29.94,10,2,10,0.20
2013-4-12,69.4,59.3,47.7,59.3,35.4,10.0,90,52,15,30.00,29.82,13,4,21,1.54
2013-4-13,66.2,53.4,42.4,17.2,10.9,4.7,22,18,15,30.15,29.94,14,5,18,0.00
2013-4-14,67.8,52.4,32.2,27.0,13.9,4.8,46,23,15,30.21,30.12,13,2,13,0.00
2013-4-15,54.5,51.5,48.7,51.2,43.8,14.3,92,78,20,30.32,30.12,9,1,11,0.43
2013-4-16,71.1,59.6,53.1,62.1,42.6,23.4,98,63,17,30.41,30.32,5,0,5,0.04
2013-4-17,66.9,58.1,52.7,56.8,44.8,31.9,86,64,31,30.38,30.29,8,0,11,0.20
2013-4-18,67.8,61.0,52.2,56.5,39.6,20.3,86,54,17,30.29,30.15,6,1,11,0.00
2013-4-19,62.2,57.3,42.6,60.2,51.4,19.4,93,82,39,30.15,29.91,12,2,13,1.02
2013-4-20,54.1,42.5,31.6,19.5,7.1,-0.9,40,23,18,30.35,30.00,14,5,23,0.00
2013-4-21,53.8,41.0,27.7,17.3,7.8,1.7,49,27,18,30.50,30.35,10,2,10,0.00
2013-4-22,56.8,44.0,29.8,16.2,8.0,-0.4,44,23,17,30.47,30.32,8,2,10,0.00
2013-4-23,64.2,47.1,28.2,24.3,12.3,-0.9,50,26,16,30.35,30.24,6,1,10,0.00
2013-4-24,67.1,56.2,42.8,41.0,24.7,18.3,62,32,17,30.24,30.15,9,2,14,0.04
2013-4-25,63.1,49.2,34.3,36.4,13.6,5.3,59,26,16,30.38,30.21,13,5,20,0.00
2013-4-26,62.4,49.7,35.8,15.7,9.0,0.7,26,19,16,30.50,30.38,6,1,10,0.00
2013-4-27,56.3,50.3,46.0,41.8,21.7,7.9,78,36,17,30.47,30.35,6,1,6,0.24
2013-4-28,51.1,48.9,47.7,48.1,44.8,42.0,93,86,79,30.35,30.15,6,0,10,0.87
2013-4-29,62.2,55.2,49.8,58.9,43.0,32.4,97,68,35,30.18,30.12,5,0,6,0.04
2013-4-30,66.6,58.2,52.3,53.3,37.7,20.1,85,53,17,30.32,30.15,9,1,9,0.00
2013-5-1,61.5,55.2,50.9,41.8,31.0,18.2,71,42,19,30.41,30.32,9,2,12,0.00
2013-5-2,55.6,51.7,49.5,53.9,47.5,42.9,94,86,73,30.41,30.35,8,1,11,0.12
2013-5-3,57.7,52.4,46.9,47.1,27.9,11.6,88,48,17,30.35,30.27,8,2,12,0.00
2013-5-4,54.7,46.2,41.0,40.9,22.2,11.0,80,42,18,30.27,30.15,11,2,14,0.04
2013-5-5,49.8,46.2,42.8,48.7,34.8,10.5,96,70,25,30.18,30.03,15,4,17,1.30
2013-5-6,56.3,50.2,43.5,55.5,48.8,41.0,98,95,86,30.06,29.94,15,2,24,2.99
2013-5-7,57.6,48.8,43.5,55.8,46.0,41.1,96,90,81,30.06,30.00,0,0,0,0.43
2013-5-8,60.4,50.9,40.8,54.2,43.8,32.2,95,79,35,30.18,30.03,8,0,15,0.04
2013-5-9,72.1,57.6,43.3,55.6,31.9,18.5,91,48,16,30.27,30.12,14,1,14,0.00
2013-5-10,74.1,59.1,44.6,57.8,32.1,20.3,81,42,16,30.27,30.12,8,1,10,0.00
2013-5-11,69.4,61.5,55.4,48.6,31.8,20.0,66,35,17,30.15,30.00,7,2,10,0.00
2013-5-12,57.9,51.1,38.3,33.7,15.4,1.8,42,25,17,30.15,29.97,13,5,23,0.00
2013-5-13,58.3,45.5,32.2,14.2,7.8,1.0,36,22,17,30.27,30.12,15,3,18,0.00
2013-5-14,65.3,49.6,28.6,23.1,12.0,-0.4,47,24,15,30.29,30.18,8,1,10,0.00
2013-5-15,82.2,67.0,46.2,37.2,24.0,14.9,53,21,14,30.21,30.15,17,6,18,0.00
2013-5-16,75.9,65.3,54.5,25.7,21.2,13.4,28,19,15,30.24,30.15,13,5,15,0.00
2013-5-17,73.2,60.4,47.5,52.3,33.0,19.6,80,41,16,30.29,30.21,8,1,10,0.24
2013-5-18,64.0,59.9,54.5,60.0,55.0,49.5,89,84,78,30.29,30.24,0,0,3,0.63
2013-5-19,68.2,62.2,60.1,66.7,59.2,55.8,96,90,81,30.27,30.21,0,0,5,1.57
2013-5-20,71.6,64.4,58.8,63.8,52.4,33.9,93,70,26,30.27,30.21,0,0,9,0.08
2013-5-21,79.5,67.6,55.9,64.1,41.7,25.1,88,48,15,30.24,30.18,9,1,9,0.12
2013-5-22,73.9,63.3,56.5,63.3,48.3,28.2,88,63,22,30.21,30.12,0,0,8,0.83
2013-5-23,73.8,62.7,56.1,60.7,44.6,21.9,91,61,16,30.15,30.03,10,0,10,0.08
2013-5-24,59.7,53.7,45.1,50.2,25.0,6.7,80,39,17,30.27,30.03,17,3,22,0.04
2013-5-25,67.6,52.1,38.5,18.4,13.0,6.2,36,22,15,30.38,30.27,12,3,13,0.00
2013-5-26,68.0,56.0,46.8,24.2,16.2,10.4,40,21,15,30.38,30.32,8,1,13,0.00
2013-5-27,72.0,58.3,41.9,52.5,28.1,19.7,84,38,16,30.38,30.32,6,1,8,0.00
2013-5-28,75.4,65.2,53.2,57.8,35.0,23.9,79,37,15,30.35,30.29,8,1,9,0.00
2013-5-29,77.4,67.1,54.7,57.0,33.6,23.1,75,33,15,30.41,30.32,8,1,8,0.00
2013-5-30,75.7,65.1,51.8,60.7,35.6,23.6,83,40,15,30.41,30.35,5,0,9,0.00
2013-5-31,75.6,65.4,54.1,61.8,35.9,24.1,82,39,15,30.38,30.32,7,1,10,0.00
2013-6-1,77.4,67.9,59.2,61.6,40.2,25.0,85,42,15,30.32,30.21,5,1,9,0.00
2013-6-2,73.8,65.7,62.1,58.7,48.4,35.5,87,57,25,30.30,30.15,8,0,8,4.25
2013-6-3,75.0,65.7,56.3,63.4,43.4,22.8,93,54,16,30.33,30.21,0,0,13,0.00
2013-6-4,69.3,60.2,52.5,57.3,41.7,28.9,88,56,23,30.45,30.33,0,0,0,0.00
2013-6-5,65.1,60.8,53.4,60.7,55.7,40.5,96,84,61,30.45,30.36,0,0,0,0.00
2013-6-6,70.2,64.7,59.7,68.4,61.5,58.3,98,90,70,30.36,30.15,0,0,4,0.00
2013-6-7,71.1,65.5,59.9,66.0,52.2,34.5,94,67,26,30.21,30.03,4,0,8,0.00
2013-6-8,74.7,65.2,57.2,60.1,44.1,27.0,88,53,19,30.45,30.18,5,0,6,4.00
2013-6-9,76.5,67.0,62.1,67.8,52.2,28.1,92,66,18,30.50,30.42,6,0,8,1.00
2013-6-10,73.2,65.6,59.4,67.1,54.5,31.2,96,71,25,30.42,27.17,8,2,12,0.24
2013-6-11,75.0,65.2,57.4,60.5,42.9,25.1,90,52,16,29.29,27.23,10,3,14,0.00
2013-6-12,84.9,70.4,56.5,65.7,43.8,27.3,90,48,13,29.88,27.23,9,3,17,0.00
2013-6-13,83.7,70.4,61.5,63.5,41.4,27.2,84,41,14,29.85,27.02,12,5,17,0.00
2013-6-14,71.4,62.8,52.0,34.8,26.3,19.9,43,27,17,29.94,29.68,11,2,15,0.00
2013-6-15,75.6,61.7,45.9,57.6,33.1,23.1,83,41,15,30.00,29.91,6,1,10,0.00
2013-6-16,77.5,65.9,52.9,62.3,39.6,24.4,88,46,15,30.00,29.94,6,1,10,0.00
2013-6-17,76.8,67.9,61.9,67.3,49.4,29.3,90,57,18,29.97,29.85,6,0,8,0.00
2013-6-18,70.3,65.8,59.7,64.5,57.7,49.6,89,76,55,29.88,29.74,0,0,0,0.00
2013-6-19,72.3,63.3,54.0,63.8,45.7,27.2,91,59,19,30.03,29.83,0,0,0,0.00
2013-6-20,71.2,64.0,56.5,61.2,49.8,34.2,90,65,26,30.09,30.00,0,0,0,0.00
2013-6-21,75.9,66.9,58.8,60.7,40.4,23.6,87,47,15,30.15,30.09,0,0,0,0.00
2013-6-22,77.7,64.1,48.2,57.7,35.3,23.4,84,42,15,30.12,30.03,0,0,4,0.00
2013-6-23,78.6,68.1,57.9,65.1,41.9,24.9,88,47,15,30.09,30.03,0,0,0,0.00
2013-6-24,77.2,67.6,58.8,64.4,46.4,30.4,87,53,18,30.12,30.00,0,0,0,0.00
2013-6-25,82.0,66.3,0.0,67.4,45.7,0.0,95,56,14,30.14,29.97,4,0,5,0.00
2013-6-26,90.0,70.6,56.8,69.8,64.7,56.2,99,84,49,30.12,29.93,1,0,6,0.00
2013-6-27,79.6,68.8,61.6,71.2,65.3,61.0,99,89,72,29.95,29.76,2,0,11,0.07
2013-6-28,82.6,70.7,59.6,68.7,63.9,59.0,99,81,60,29.80,29.63,4,0,10,0.01
2013-6-29,80.2,67.1,57.5,65.6,61.3,57.0,99,84,54,29.75,29.63,0,0,6,0.00
2013-6-30,78.0,67.0,59.2,70.0,64.0,58.9,99,91,70,29.86,29.73,2,0,9,1.84
2013-7-1,73.8,65.9,60.1,68.3,64.1,59.5,99,94,77,29.99,29.85,4,0,12,0.72
2013-7-2,74.1,66.2,63.1,69.3,65.1,62.8,99,96,85,30.17,29.99,3,0,7,1.64
2013-7-3,70.8,66.4,64.0,69.1,65.8,63.7,99,98,94,30.24,30.15,4,0,10,2.93
2013-7-4,70.7,66.5,63.0,70.3,66.2,63.0,100,99,94,30.28,30.21,3,0,8,3.45
2013-7-5,76.1,67.7,63.5,71.3,66.7,63.5,100,96,85,30.28,30.22,2,0,18,0.88
2013-7-6,76.9,68.3,63.8,69.6,66.9,63.8,100,96,77,30.26,30.15,3,0,9,0.31
2013-7-7,78.3,68.5,63.9,72.4,67.2,63.7,100,96,82,30.20,30.10,3,0,6,1.60
2013-7-8,81.0,69.6,60.3,70.9,65.7,60.3,100,89,62,30.22,30.14,1,0,6,0.00
2013-7-9,82.8,71.1,62.6,69.9,66.0,62.6,100,86,52,30.19,30.09,2,0,4,0.00
2013-7-10,80.9,69.0,60.5,75.6,67.0,60.5,100,94,77,30.13,29.98,0,0,6,0.76
2013-7-11,75.3,68.6,64.0,71.5,67.5,63.7,100,96,82,29.99,29.90,1,0,5,0.80
2013-7-12,75.5,68.0,62.3,69.4,64.6,61.4,99,89,74,30.07,29.93,4,1,7,0.05
2013-7-13,71.4,65.5,60.8,66.6,63.7,60.2,99,94,83,30.19,30.06,7,1,9,0.05
2013-7-14,75.4,68.7,66.0,69.5,67.0,65.3,100,95,76,30.34,30.16,6,1,13,2.27
2013-7-15,80.7,70.9,61.2,69.1,66.5,60.9,99,87,64,30.38,30.31,2,0,6,0.00
2013-7-16,86.3,70.9,56.7,72.0,64.2,56.7,100,83,44,30.38,30.27,2,0,5,0.00
2013-7-17,87.0,71.7,63.0,73.0,67.4,62.7,99,88,57,30.31,30.19,3,0,13,0.51
2013-7-18,84.2,75.5,64.7,74.7,70.2,64.4,99,85,69,30.23,30.10,2,0,6,0.00
2013-7-19,81.8,69.5,61.0,73.6,67.1,60.7,100,93,71,30.15,30.03,2,0,5,0.19
2013-7-20,83.3,71.6,65.2,72.5,68.1,64.6,99,89,70,30.06,29.95,0,0,2,0.04
2013-7-21,83.5,69.8,59.4,71.7,66.5,59.4,100,90,60,30.03,29.95,2,0,5,0.75
2013-7-22,78.2,69.0,62.9,72.3,67.4,62.6,100,95,78,30.00,29.85,0,0,5,0.63
2013-7-23,79.7,69.3,61.8,70.1,65.7,61.5,100,89,67,29.88,29.81,3,0,8,0.03
2013-7-24,81.6,70.8,60.8,70.3,65.2,60.5,100,84,59,29.89,29.81,2,0,6,0.00
2013-7-25,75.8,66.8,59.6,66.6,63.4,59.0,99,90,70,30.09,29.89,3,0,9,0.04
2013-7-26,76.7,65.9,55.9,68.6,63.0,55.6,100,91,74,30.14,30.06,3,0,10,0.00
2013-7-27,70.1,65.0,62.1,67.7,64.1,61.3,99,97,89,30.07,29.94,3,0,10,4.71
2013-7-28,76.0,65.7,56.1,68.7,63.4,55.8,100,93,76,30.07,29.95,0,0,4,0.04
2013-7-29,78.4,62.3,49.9,62.3,56.2,49.9,100,83,44,30.27,30.07,2,0,5,0.00
2013-7-30,73.1,62.5,51.3,64.8,58.7,51.0,100,89,66,30.30,30.22,2,0,7,0.00
2013-7-31,66.1,62.8,60.4,64.8,62.1,60.1,99,97,90,30.23,30.03,0,0,4,0.11
2013-8-1,78.5,68.5,61.2,69.9,64.5,60.6,100,88,68,30.03,29.92,1,0,7,0.02
2013-8-2,80.4,67.0,55.5,67.4,61.8,55.5,100,85,53,30.09,29.98,1,0,7,0.00
2013-8-3,81.7,67.2,59.2,68.6,63.1,58.9,100,88,60,30.08,29.99,1,0,4,0.00
2013-8-4,78.6,67.4,58.6,67.4,61.0,54.9,100,82,48,30.09,29.99,2,0,7,0.26
2013-8-5,74.2,64.9,54.3,66.5,61.2,54.0,100,89,66,30.12,30.03,3,0,8,0.00
2013-8-6,74.4,68.6,63.8,69.2,65.8,63.2,98,91,80,30.06,29.99,2,0,8,0.00
2013-8-7,68.3,66.3,64.4,67.7,65.8,63.8,99,98,96,30.11,30.04,2,0,7,0.31
2013-8-8,74.7,69.5,65.9,71.9,68.4,65.6,100,96,89,30.10,30.04,2,0,6,0.09
2013-8-9,82.9,74.9,64.9,74.0,70.2,64.6,99,86,70,30.08,30.02,1,0,5,0.00
2013-8-10,84.6,71.3,62.8,73.8,67.7,62.5,100,90,64,30.13,30.06,3,0,6,0.13
2013-8-11,84.0,70.6,60.3,72.4,66.8,60.1,100,89,64,30.16,30.07,1,0,4,0.00
2013-8-12,85.2,71.3,63.1,71.9,67.3,62.8,100,88,62,30.11,29.98,1,0,6,0.35
2013-8-13,73.3,66.2,61.7,71.8,65.3,61.5,100,97,87,30.00,29.85,2,0,4,0.29
2013-8-14,71.8,62.4,52.6,62.9,57.0,52.0,100,84,51,30.11,29.92,1,0,6,0.00
2013-8-15,64.3,53.9,44.3,57.6,51.0,44.0,100,91,73,30.23,30.14,4,0,11,0.00
2013-8-16,68.3,56.3,44.1,58.8,52.9,44.1,100,89,68,30.26,30.18,1,0,5,0.00
2013-8-17,64.6,58.3,50.5,60.4,56.5,50.2,99,94,78,30.26,30.19,4,0,11,0.64
2013-8-18,68.8,63.4,60.3,65.8,62.4,60.0,99,97,90,30.27,30.19,4,0,9,1.42
2013-8-19,70.8,65.5,61.5,67.7,64.4,61.5,100,96,87,30.24,30.13,0,0,3,0.38
2013-8-20,76.4,68.0,61.3,69.9,65.3,61.0,100,92,75,30.22,30.14,2,0,7,0.00
2013-8-21,75.9,66.9,59.7,69.8,65.1,59.7,100,94,75,30.27,30.15,1,0,4,0.04
2013-8-22,82.6,70.0,57.1,70.1,65.0,57.1,100,86,59,30.20,30.05,4,0,6,0.00
2013-8-23,75.4,65.1,57.4,69.9,63.3,57.4,100,94,81,30.14,30.02,1,0,3,0.01
2013-8-24,74.0,62.0,51.5,62.6,55.2,51.2,100,82,50,30.37,30.14,2,0,6,0.00
2013-8-25,71.4,58.7,47.2,61.0,54.1,47.2,100,86,59,30.46,30.37,4,0,7,0.00
2013-8-26,79.3,68.3,50.6,64.8,60.5,50.3,99,78,54,30.42,30.20,2,0,6,0.00
2013-8-27,80.7,68.1,55.8,70.0,63.9,55.5,100,88,65,30.21,30.06,2,0,7,0.00
2013-8-28,83.8,71.3,63.4,71.4,67.1,62.9,99,87,63,30.07,29.94,3,0,6,0.00
2013-8-29,84.8,74.2,65.5,71.8,68.3,64.9,98,83,59,30.02,29.90,6,0,9,0.10
2013-8-30,75.9,69.1,64.2,69.4,66.8,63.6,99,93,78,30.06,29.96,4,0,8,0.08
2013-8-31,84.7,71.0,61.7,72.1,67.4,61.4,99,89,64,29.99,29.89,2,0,6,0.00
2013-9-1,81.6,65.6,58.5,72.1,64.3,58.5,100,96,72,29.95,29.84,1,0,5,0.70
2013-9-2,79.9,67.4,57.2,71.6,64.3,57.2,100,91,66,29.95,29.86,1,0,6,0.00
2013-9-3,77.9,66.5,56.6,68.4,63.4,56.0,100,91,62,30.03,29.87,1,0,5,0.00
2013-9-4,77.4,62.5,49.7,66.7,58.7,49.7,100,89,60,30.19,30.04,2,0,4,0.00
2013-9-5,80.3,61.4,45.0,64.1,53.9,45.0,100,81,38,30.22,30.15,1,0,5,0.00
2013-9-6,72.8,60.1,49.2,63.0,57.0,48.9,99,90,68,30.25,30.17,2,0,7,0.00
2013-9-7,75.2,67.0,55.7,67.6,62.5,55.2,99,86,69,30.20,30.05,2,0,4,0.00
2013-9-8,81.1,66.5,54.3,67.7,61.7,54.0,100,86,53,30.07,29.99,2,0,8,0.00
2013-9-9,76.4,65.8,56.0,70.1,62.9,55.7,100,91,76,30.21,30.07,1,0,7,0.00
2013-9-10,81.0,67.3,55.4,70.3,63.5,55.4,100,89,64,30.28,30.20,1,0,7,0.00
2013-9-11,84.5,67.3,57.5,71.0,64.6,57.2,100,92,58,30.27,30.14,4,0,7,1.49
2013-9-12,80.3,68.0,59.3,71.0,65.2,59.3,100,92,71,30.13,29.89,2,0,5,0.12
2013-9-13,71.8,61.2,47.9,63.1,56.0,47.1,99,84,53,29.99,29.83,2,0,9,0.01
2013-9-14,68.7,53.4,39.6,56.0,48.4,39.3,99,85,55,30.21,29.98,1,0,4,0.00
2013-9-15,70.8,56.7,44.5,60.1,53.1,44.5,100,89,63,30.30,30.20,4,0,6,0.00
2013-9-16,76.8,59.5,47.6,63.9,55.9,47.6,100,89,62,30.26,30.16,2,0,4,0.00
2013-9-17,59.9,54.2,46.0,54.7,51.5,45.7,100,91,79,30.38,30.26,4,0,9,0.00
2013-9-18,63.2,54.8,50.0,56.9,51.8,47.8,98,90,78,30.35,30.24,2,0,4,0.00
2013-9-19,67.9,61.4,55.4,64.0,59.7,54.8,99,94,86,30.25,30.14,1,0,3,0.00
2013-9-20,77.8,66.0,57.1,67.6,62.8,57.1,100,90,66,30.14,29.97,6,0,6,0.00
2013-9-21,64.1,61.1,53.2,63.5,60.8,53.2,100,99,98,29.97,29.75,4,0,11,1.13
2013-9-22,66.3,55.9,46.7,56.5,52.2,46.4,100,89,63,30.00,29.79,1,0,9,0.00
2013-9-23,66.4,51.2,41.4,57.8,49.0,41.1,100,93,70,30.16,30.01,1,0,4,0.00
2013-9-24,71.4,54.9,45.3,60.8,49.3,-49.6,100,88,1,30.17,30.02,2,0,8,0.00
2013-9-25,60.0,54.1,48.2,59.2,53.8,48.2,100,99,95,30.03,29.94,0,0,3,0.24
2013-9-26,69.2,56.8,47.8,58.8,54.3,47.5,100,92,66,30.12,29.96,2,0,6,0.00
2013-9-27,68.6,54.0,40.7,59.4,51.0,40.7,100,91,67,30.27,30.13,3,0,5,0.00
2013-9-28,61.8,54.6,47.9,56.2,52.0,47.6,99,91,79,30.31,30.24,2,0,6,0.00
2013-9-29,64.3,54.8,45.5,58.3,52.3,45.2,99,92,75,30.25,30.11,2,0,6,0.00
2013-9-30,65.4,55.5,44.8,59.8,53.5,44.8,100,93,79,30.16,30.08,0,0,4,0.00
2013-10-1,73.8,56.5,43.3,62.6,52.4,43.3,100,88,60,30.23,30.13,1,0,5,0.00
2013-10-2,74.6,61.0,44.4,64.2,55.9,44.4,100,85,62,30.26,30.16,2,0,4,0.00
2013-10-3,71.9,58.2,48.1,63.3,55.8,47.8,100,92,69,30.22,30.15,4,0,6,0.00
2013-10-4,77.5,67.8,54.8,66.3,61.8,54.2,100,83,61,30.23,30.15,0,0,5,0.00
2013-10-5,77.5,61.2,48.7,67.5,57.6,48.7,100,89,64,30.23,30.11,1,0,8,0.00
2013-10-6,73.0,63.1,54.0,66.1,60.0,53.9,100,90,75,30.13,29.94,3,0,10,0.00
2013-10-7,64.3,58.2,48.8,62.3,55.8,45.7,99,92,79,30.08,29.83,2,0,7,3.46
2013-10-8,61.0,48.2,39.1,49.0,43.7,38.8,100,86,58,30.33,30.08,4,0,7,0.00
2013-10-9,65.2,47.9,35.0,52.1,41.2,34.8,99,82,41,30.36,30.25,1,0,6,0.00
2013-10-10,64.0,50.5,37.5,58.8,48.5,37.2,100,93,81,30.26,30.10,2,0,9,0.00
2013-10-11,72.0,59.9,51.7,55.0,52.5,50.6,96,78,52,30.09,29.98,4,0,9,0.00
2013-10-12,65.4,59.1,51.6,59.4,56.3,51.1,99,91,79,30.13,30.01,1,0,4,0.00
2013-10-13,67.5,60.8,56.7,61.0,58.2,56.4,99,92,75,30.24,30.14,5,0,7,0.16
2013-10-14,62.9,57.9,54.3,58.3,56.4,54.0,99,95,84,30.29,30.21,3,0,6,0.03
2013-10-15,64.9,53.3,42.2,54.9,49.9,41.9,100,89,56,30.25,30.14,3,0,5,0.00
2013-10-16,66.6,54.7,42.3,58.0,51.6,42.0,100,90,67,30.16,30.02,3,0,4,0.00
2013-10-17,63.4,58.1,52.2,61.5,57.3,51.9,100,97,90,30.04,29.88,1,0,5,0.07
2013-10-18,63.0,52.3,41.3,51.9,48.2,40.8,98,87,58,30.09,29.95,3,0,6,0.00
2013-10-19,59.2,52.5,43.4,55.3,49.8,42.7,99,91,64,30.04,29.88,1,0,4,0.00
2013-10-20,58.1,44.5,32.9,43.9,37.1,29.9,98,78,37,30.20,29.99,2,0,6,0.00
2013-10-21,60.1,44.4,30.3,50.5,41.2,30.0,100,90,66,30.26,30.09,2,0,7,0.00
2013-10-22,63.8,51.2,43.0,50.6,46.3,42.7,100,85,55,30.11,29.87,1,0,5,0.04
2013-10-23,53.0,42.6,32.7,48.0,37.3,27.2,99,83,53,30.07,29.77,6,0,13,0.02
2013-10-24,46.0,37.2,30.0,34.9,31.5,26.9,97,80,63,30.27,30.08,2,0,10,0.01
2013-10-25,38.2,32.2,25.8,33.5,28.5,23.3,98,87,70,30.48,30.27,1,0,10,0.04
2013-10-26,49.6,35.0,18.5,36.4,27.7,17.3,97,77,48,30.46,30.20,2,0,6,0.01
2013-10-27,59.5,46.8,36.4,42.5,37.8,34.0,96,73,46,30.21,30.12,1,0,8,0.00
2013-10-28,55.5,46.8,36.5,53.5,45.8,35.8,99,96,88,30.37,30.21,0,0,1,0.02
2013-10-29,64.6,50.0,36.6,55.6,46.4,36.5,100,89,63,30.44,30.33,2,0,5,0.00
2013-10-30,68.4,57.3,50.9,56.9,53.3,49.7,99,87,66,30.35,30.22,1,0,6,0.03
2013-10-31,59.6,56.3,50.0,57.6,54.1,49.7,99,93,84,30.23,29.91,5,1,13,0.03
2013-11-1,60.6,56.1,44.8,58.6,54.4,42.9,98,94,85,29.88,29.70,4,0,18,0.03
2013-11-2,58.4,48.3,40.8,45.3,39.7,33.5,94,73,51,30.02,29.75,3,0,7,0.00
2013-11-3,48.8,39.6,27.1,36.2,32.3,26.5,98,76,56,30.46,30.02,2,0,10,0.00
2013-11-4,47.9,35.4,23.4,30.2,27.0,22.7,98,74,45,30.65,30.47,2,0,8,0.00
2013-11-5,50.6,40.4,27.0,44.6,35.6,26.0,98,84,53,30.66,30.54,5,0,7,0.02
2013-11-6,57.4,48.1,44.9,50.5,46.8,44.4,99,96,75,30.53,30.19,1,0,6,0.05
2013-11-7,56.2,45.4,29.8,54.2,42.0,27.8,99,88,69,30.19,30.05,3,0,8,0.02
2013-11-8,44.8,33.8,24.4,27.7,24.5,21.6,92,71,44,30.44,30.19,1,0,10,0.00
2013-11-9,48.7,33.9,22.9,31.2,25.7,21.4,94,75,43,30.48,30.33,1,0,6,0.00
2013-11-10,58.2,45.8,29.7,38.2,29.7,22.6,86,55,38,30.33,30.23,4,0,9,0.00
2013-11-11,54.5,37.9,23.1,30.3,22.6,17.4,90,59,24,30.41,30.27,1,0,6,0.00
2013-11-12,52.2,34.6,20.6,37.8,24.7,12.5,85,68,50,30.53,30.15,3,0,16,0.00
2013-11-13,36.8,26.2,18.5,17.1,14.8,12.2,84,64,37,30.64,30.50,2,0,7,0.00
2013-11-14,53.4,31.4,14.9,25.0,16.9,12.9,93,63,20,30.61,30.46,4,0,5,0.00
2013-11-15,54.3,37.1,21.9,43.6,32.1,19.0,98,84,38,30.46,30.34,2,0,6,0.17
2013-11-16,51.6,48.1,44.0,50.5,47.7,43.5,100,98,96,30.35,30.26,2,0,7,0.01
2013-11-17,55.4,52.2,50.1,55.4,52.1,49.8,100,100,98,30.27,29.93,3,0,8,0.27
2013-11-18,58.4,51.6,38.6,56.5,43.8,26.7,100,76,51,30.04,29.88,2,0,9,0.06
2013-11-19,44.0,36.4,28.7,26.8,24.3,20.0,86,63,38,30.37,30.04,6,0,9,0.00
2013-11-20,41.9,34.4,27.5,27.5,25.4,22.8,87,70,52,30.58,30.37,3,0,8,0.00
2013-11-21,52.1,42.8,33.9,47.8,39.7,26.2,98,89,72,30.60,30.49,1,0,4,0.01
2013-11-22,63.8,52.8,46.4,56.5,51.5,45.9,99,95,77,30.48,30.16,2,0,6,0.02
2013-11-23,51.1,41.5,27.0,50.8,35.1,17.5,99,79,53,30.24,30.13,2,0,8,0.01
2013-11-24,26.1,21.0,14.1,16.0,6.3,-0.4,73,54,33,30.64,30.24,4,0,12,0.00
2013-11-25,31.2,22.9,11.2,23.0,8.7,4.9,86,57,36,30.66,30.48,1,0,4,0.00
2013-11-26,41.6,36.5,27.3,41.1,35.9,25.0,99,98,90,30.47,29.75,2,0,10,0.15
2013-11-27,40.0,29.3,20.2,39.9,26.3,14.3,100,89,77,30.08,29.69,4,1,15,0.00
2013-11-28,35.8,29.7,21.7,20.5,18.7,11.4,91,66,36,30.59,30.50,1,0,3,0.00
2013-11-29,44.5,34.8,25.5,26.7,23.2,20.0,88,65,39,30.73,30.64,1,0,4,0.01
2013-11-30,37.0,26.8,18.3,23.6,20.7,16.9,96,79,55,30.73,30.50,1,0,5,0.03
2013-12-1,49.8,30.1,17.3,33.5,23.8,16.1,96,81,38,30.50,30.19,1,0,3,0.00
2013-12-2,46.8,33.9,22.6,39.0,30.9,21.9,98,89,70,30.18,29.96,0,0,2,0.00
2013-12-3,53.2,43.1,31.6,46.0,40.3,30.9,98,91,72,30.04,29.97,2,0,6,0.02
2013-12-4,52.6,49.1,45.6,52.2,48.7,45.3,100,99,95,30.13,30.02,1,0,9,0.01
2013-12-5,60.9,56.2,52.4,58.7,55.8,52.4,100,99,92,30.15,30.03,2,0,10,0.21
2013-12-6,62.9,60.5,52.5,61.5,59.9,52.2,100,98,93,30.03,29.94,4,1,17,0.50
2013-12-7,51.4,41.1,33.2,51.1,39.1,31.4,100,93,84,30.47,30.01,0,0,6,0.02
2013-12-8,32.7,29.5,27.7,32.0,29.0,27.0,99,98,95,30.48,30.34,3,0,6,0.31
2013-12-9,53.1,42.2,30.6,51.0,41.6,30.4,100,98,90,30.33,30.12,4,0,9,0.03
2013-12-10,41.3,35.0,24.3,40.8,32.2,18.1,100,90,76,30.35,29.97,4,0,8,0.41
2013-12-11,41.1,30.0,18.6,20.7,17.8,14.2,90,63,35,30.53,30.34,0,0,3,0.00
2013-12-12,31.1,26.1,19.9,20.5,14.8,7.8,81,63,38,30.48,30.38,5,0,10,0.00
2013-12-13,41.9,29.3,17.8,24.6,17.9,11.6,83,63,41,30.49,30.39,1,0,5,0.00
2013-12-14,35.2,33.3,31.8,32.8,29.5,23.3,99,87,64,30.39,29.87,3,0,7,0.05
2013-12-15,38.7,32.3,27.1,38.7,29.9,24.9,100,91,82,30.17,29.85,4,1,10,0.07
2013-12-16,44.0,32.0,23.5,31.6,27.1,22.8,97,84,57,30.27,30.15,1,0,7,0.00
2013-12-17,48.5,35.6,24.8,37.0,30.1,24.3,99,83,55,30.24,30.02,2,0,11,0.07
2013-12-18,36.8,29.0,22.4,25.3,18.4,12.6,86,66,37,30.41,30.10,5,0,11,0.00
2013-12-19,57.6,36.1,20.3,33.9,24.6,17.3,94,68,30,30.45,30.33,4,0,7,0.00
2013-12-20,57.2,44.2,32.6,39.8,30.6,24.2,84,60,34,30.33,30.19,2,0,11,0.00
2013-12-21,57.4,53.1,47.7,57.4,51.5,41.2,100,94,78,30.21,30.03,2,0,13,0.11
2013-12-22,60.0,56.1,53.2,59.7,55.8,52.9,100,99,95,30.09,29.98,7,1,20,2.65
2013-12-23,56.1,44.4,28.9,56.1,43.2,27.4,100,95,88,30.22,30.00,2,0,8,0.58
2013-12-24,30.8,25.0,15.5,26.7,20.1,10.1,94,82,67,30.53,30.22,3,0,9,0.00
2013-12-25,29.3,18.4,8.9,17.2,8.8,2.9,94,70,37,30.66,30.52,1,0,4,0.00
2013-12-26,40.0,26.7,14.9,27.2,19.7,12.0,94,76,46,30.52,30.42,3,0,10,0.00
2013-12-27,43.1,27.2,16.2,23.8,19.6,15.0,95,76,39,30.60,30.50,1,0,3,0.00
2013-12-28,49.2,28.1,16.7,37.5,22.7,15.5,98,84,36,30.56,30.30,0,0,3,0.23
2013-12-29,47.6,39.3,34.5,45.2,37.6,33.3,99,94,84,30.26,29.82,4,0,11,0.56
2013-12-30,41.3,36.5,31.7,36.5,33.5,29.5,93,89,82,30.21,30.00,5,0,8,0.00
2013-12-31,35.5,30.6,24.7,28.8,23.1,20.6,86,74,55,30.48,30.19,2,0,9,0.00
2014-1-1,39.5,27.9,19.0,27.2,22.4,17.9,96,81,53,30.50,30.27,2,0,8,0.00
2014-1-2,41.2,31.5,20.2,40.7,29.9,15.9,98,94,83,30.26,29.75,3,0,12,0.10